ATLAS 5 CENTAUR DEB, 43983

Orbit data source: Space-Track

ATLAS 5 CENTAUR DEB, 43983 is space debris in HEO originally from a launch on Wed, 17 Sep 2014 UTC launched from the Air Force Eastern Test Range (AFETR). Debris objects in space refer to the collection of defunct objects orbiting the Earth. Examples of debris include non-operational satellites, rocket bodies, and fragments generated from explosions, collisions, or faulty payload assembly.

Loading next visibility...
Identifier
43983, 2014-055AN
Orbit
HEO
Last TLE update
1 day ago
Origin
Manufacturer
Unknown
Mission
Spacecraft
Bus & Motor
Unknown
Mass
Unknown
Launch date (UTC)
2014-09-17 (11 years ago)
Launch vehicle
Unknown
Launch site
Air Force Eastern Test Range (AFETR)
Object type
Payload
Rocket body
Debris
Shape & HBR
Unknown
Radar Cross Section
Small (<0.1 m²)

Expand to show TLE details & history

TLE from 1 day ago
0 ATLAS 5 CENTAUR DEB
1 43983U 14055AN  25128.08906021  .00000008  00000-0  00000-0 0  9994
2 43983  20.0897 157.6568 4967828 139.2934 271.1305  1.90079686 46294
Epoch: 2025-05-08T02:08Z
Definitive object data (Epoch: 2025-05-08T02:08:14.802Z)
Latitude
-0.00003°
Longitude
-100.49551°
Altitude
26,845.958 km
Speed
3.085 km/s
True Right ascension
10h 30m 55s
True Declination
0° 00' 00"
Sunlit
Object was in daylight at TLE epoch
Visualization TLE readout
Latitude
9.52098°
Longitude
52.13818°
Altitude
7,594.267 km
Speed
6.525 km/s
Apparent Right ascension
22h 00m 17s
Apparent Declination
-6° 56' 08"
Sunlit
Object is in daylight
Visualization observer readout
Local Sidereal Time
14:46:31
Azimuth
83.404° E
Elevation
-18.563°
Doppler factor
1
Orbital elements
Apogee altitude
34,828.661 km
Perigee altitude
7,475.556 km
Semi-major axis
27,530.245 km
Eccentricity
0.4967828
Inclination
20.0897°
RAAN
157.6568°
Arg. of periapsis
139.2934°
True anomaly
220.74571°
Mean anomaly
271.1305°
Eccentric anomaly
245.27609°
Mean motion
0.47515 °/min
BSTAR
Unknown
Orbital period
757.66 mins
Loading maneuver chart data...
Loading SW <> Apogee altitude chart data...
Loading historical data...
Loading historical data...
Loading historical data...
Loading historical data...
Loading historical data...
Loading historical data...
Loading historical data...

ATLAS 5 CENTAUR DEB Visibility forecast

Observer location: undefined°, undefined°

Span
Click to sort rows by Start time (UTC) header in descending order
Start Az.
Max El. time (UTC)
Max El. Az.
Max El.
End time (UTC)
End Az.
581 mins2025-05-09 20:56:39.252Z212.247° SW2025-05-10 06:37:39.252Z207.024° SW38.665°2025-05-10 06:37:39.252Z207.024° SW
|